Weather History for Jersey, United Kingdom

Change the Weather History Date:

Sunday, December 11, 2011

  Actual Average Record
Temperature  
Mean Temperature 46 °F -  
Max Temperature 50 °F 46 °F 57 °F (2000)
Min Temperature 42 °F 40 °F 33 °F (1996)
Degree Days  
Heating Degree Days 19    
Moisture  
Dew Point 42 °F    
Average Humidity 80    
Maximum Humidity 94    
Minimum Humidity 58    
Precipitation  
Precipitation 0.00 in - - ()
Sea Level Pressure  
Sea Level Pressure 29.80 in    
Wind  
Wind Speed 13 mph ()    
Max Wind Speed 25 mph    
Max Gust Speed -    
Visibility 6.2 miles    
Events Rain    
Averages and records for this station are not official NWS values.
T = Trace of Precipitation, MM = Missing Value Source: Averaged Metar Reports

Daily Weather History Graph

Daily Weather History Graph

Search for Another Location

Airport:

Trip Planner

Search our weather history database for the weather conditions in past years. The results will help you decide how hot, cold, wet, or windy it might be!

Date:

Astronomy

Dec. 11, 2011 Rise Set
Actual Time 7:53 AM GMT 4:10 PM GMT
Civil Twilight 7:15 AM GMT 4:47 PM GMT
Nautical Twilight 6:35 AM GMT 5:28 PM GMT
Astronomical Twilight 5:56 AM GMT 6:06 PM GMT
Moon 5:06 PM GMT (12/11) 8:30 AM GMT (12/11)
Length of Visible Light 9h 31m
Length of Day
8h 17m
Full, 99% of the Moon is Illuminated
Dec 11
Full
Dec 18
Last Quarter
Dec 24
New
Jan 1
First Quarter
Jan 9
Full

Hourly Weather History & Observations

Time (GMT) Temp. Windchill Dew Point Humidity Pressure Visibility Wind Dir Wind Speed Gust Speed Precip Events Conditions
12:00 AM 46 °F - 41 °F 78% 30.04 in 34 mi South 8.1 mph - - Rain Light Rain Showers
3:00 AM 46 °F - 38 °F 63% 29.99 in 34 mi SSW 13.8 mph - -   Partly Cloudy
3:50 AM 46.4 °F 40.7 °F 37.4 °F 71% 29.98 in 6.2 mi SSW 12.7 mph - N/A   Partly Cloudy
4:20 AM 46.4 °F 40.7 °F 37.4 °F 71% 29.95 in 6.2 mi SSW 12.7 mph - N/A   Mostly Cloudy
4:50 AM 46.4 °F 41.9 °F 35.6 °F 66% 29.95 in 6.2 mi SSW 9.2 mph - N/A   Mostly Cloudy
5:20 AM 46.4 °F 41.1 °F 35.6 °F 66% 29.95 in 6.2 mi SSW 11.5 mph - N/A   Mostly Cloudy
5:50 AM 46.4 °F 40.7 °F 35.6 °F 66% 29.92 in 6.2 mi SSW 12.7 mph - N/A   Mostly Cloudy
6:00 AM 46 °F - 36 °F 59% 29.94 in 31 mi SSW 12.7 mph - -   Mostly Cloudy
6:20 AM 46.4 °F 41.1 °F 35.6 °F 66% 29.92 in 6.2 mi SSW 11.5 mph - N/A   Partly Cloudy
6:50 AM 46.4 °F 39.8 °F 37.4 °F 71% 29.92 in 6.2 mi SSW 16.1 mph - N/A   Partly Cloudy
7:20 AM 46.4 °F 40.1 °F 37.4 °F 71% 29.92 in 6.2 mi South 15.0 mph - N/A   Partly Cloudy
7:50 AM 46.4 °F 39.5 °F 37.4 °F 71% 29.89 in 6.2 mi South 17.3 mph - N/A   Partly Cloudy
8:20 AM 46.4 °F 41.1 °F 35.6 °F 66% 29.89 in 6.2 mi SSW 11.5 mph - N/A   Partly Cloudy
8:50 AM 46.4 °F 41.1 °F 37.4 °F 71% 29.89 in 6.2 mi South 11.5 mph - N/A   Partly Cloudy
9:00 AM 47 °F - 37 °F 58% 29.91 in 25 mi South 16.1 mph - -   Mostly Cloudy
9:20 AM 46.4 °F 40.7 °F 39.2 °F 76% 29.89 in 6.2 mi South 12.7 mph - N/A   Partly Cloudy
9:50 AM 46.4 °F 40.1 °F 39.2 °F 76% 29.89 in 6.2 mi South 15.0 mph - N/A   Partly Cloudy
10:20 AM 46.4 °F 39.8 °F 41.0 °F 81% 29.89 in 6.2 mi South 16.1 mph - N/A   Scattered Clouds
10:50 AM 46.4 °F 39.0 °F 41.0 °F 81% 29.86 in 6.2 mi South 19.6 mph - N/A   Partly Cloudy
11:20 AM 48.2 °F - 41.0 °F 76% 29.86 in 6.2 mi South 12.7 mph - N/A Rain Light Rain
11:50 AM 46.4 °F 40.1 °F 41.0 °F 81% 29.83 in 6.2 mi South 15.0 mph - N/A Rain Light Rain
12:00 PM 46 °F - 41 °F 77% 29.83 in 16 mi South 17.3 mph - - Rain Light Rain
12:20 PM 46.4 °F 40.7 °F 41.0 °F 81% 29.80 in 6.2 mi South 12.7 mph - N/A   Mostly Cloudy
12:50 PM 48.2 °F - 42.8 °F 82% 29.80 in 6.2 mi SSW 17.3 mph - N/A   Mostly Cloudy
1:20 PM 48.2 °F - 44.6 °F 87% 29.77 in 6.2 mi SSW 21.9 mph - N/A Rain Light Rain
1:50 PM 46.4 °F 40.4 °F 44.6 °F 93% 29.74 in 3.7 mi South 13.8 mph - N/A Rain Rain
2:20 PM 48.2 °F - 44.6 °F 87% 29.74 in 6.2 mi South 15.0 mph - N/A Rain Rain
2:50 PM 48.2 °F - 46.4 °F 93% 29.71 in 3.7 mi South 12.7 mph - N/A Rain Rain
3:00 PM 47 °F - 46 °F 92% 29.73 in 4 mi South 17.3 mph - - Rain Rain
3:20 PM 46.4 °F 38.7 °F 44.6 °F 93% 29.68 in 2.5 mi SSE 20.7 mph - N/A Rain Rain
3:50 PM 46.4 °F 39.2 °F 44.6 °F 93% 29.68 in 2.5 mi South 18.4 mph - N/A Rain Rain
4:20 PM 46.4 °F 40.7 °F 44.6 °F 93% 29.68 in 3.1 mi SSE 12.7 mph - N/A Rain Rain
4:50 PM 48.2 °F - 46.4 °F 93% 29.65 in 2.5 mi SSW 20.7 mph - N/A Rain Light Rain
5:20 PM 50.0 °F - 48.2 °F 94% 29.65 in 6.2 mi WSW 21.9 mph - N/A Rain Light Rain
5:50 PM 50.0 °F - 48.2 °F 94% 29.65 in 6.2 mi SW 21.9 mph - N/A Rain Light Rain
6:00 PM 51 °F - 48 °F 86% 29.65 in 7 mi SW 20.7 mph - - Rain Light Rain
6:20 PM 50.0 °F - 48.2 °F 94% 29.65 in 6.2 mi West 23.0 mph - N/A   Mostly Cloudy
6:50 PM 50.0 °F - 46.4 °F 87% 29.62 in 6.2 mi West 19.6 mph - N/A   Scattered Clouds
7:20 PM 50.0 °F - 46.4 °F 87% 29.62 in 6.2 mi West 16.1 mph - N/A   Scattered Clouds
7:50 PM 50.0 °F - 44.6 °F 82% 29.62 in 6.2 mi West 18.4 mph - N/A   Scattered Clouds
8:20 PM 50.0 °F - 46.4 °F 87% 29.65 in 6.2 mi WNW 25.3 mph - N/A   Scattered Clouds
8:50 PM 50.0 °F - 44.6 °F 82% 29.65 in 6.2 mi WNW 20.7 mph - N/A   Mostly Cloudy
9:00 PM 50 °F - 45 °F 77% 29.66 in 16 mi WNW 19.6 mph - -   Partly Cloudy
9:20 PM 50.0 °F - 44.6 °F 82% 29.65 in 6.2 mi West 18.4 mph - N/A   Mostly Cloudy
9:50 PM 48.2 °F - 44.6 °F 87% 29.65 in 6.2 mi WNW 18.4 mph - N/A   Mostly Cloudy